| time (UTC) | temp F | wind direction | speed MPH | gust MPH | rain 1hr in | rain 24hr in | rain mn in | humidity % | barometer mb |
| 20260502221528 | 57 | 146 | 3.0 | 5.0 | 0.15 | 0.15 | 0.15 | 82 | 1012.3 |
| 20260502220031 | 59 | 215 | 4.0 | 10.0 | 0.08 | 0.08 | 0.08 | 81 | 1012.1 |
| 20260502214530 | 61 | 172 | 3.0 | 6.0 | 0.00 | 0.00 | 0.00 | 72 | 1012.1 |
| 20260502213034 | 62 | 148 | 3.0 | 7.0 | 0.00 | 0.00 | 0.00 | 66 | 1011.8 |
| 20260502211525 | 62 | 150 | 3.0 | 8.0 | 0.00 | 0.00 | 0.00 | 65 | 1011.6 |
| 20260502210026 | 63 | 136 | 2.0 | 4.0 | 0.00 | 0.00 | 0.00 | 64 | 1011.7 |
| 20260502204526 | 63 | 140 | 3.0 | 10.0 | 0.00 | 0.00 | 0.00 | 66 | 1011.8 |
| 20260502203028 | 63 | 142 | 2.0 | 10.0 | 0.00 | 0.00 | 0.00 | 65 | 1011.8 |
| 20260502201536 | 62 | 117 | 4.0 | 8.0 | 0.00 | 0.00 | 0.00 | 65 | 1011.9 |
| 20260502200027 | 61 | 120 | 3.0 | 8.0 | 0.00 | 0.00 | 0.00 | 67 | 1012.0 |
| 20260502194539 | 62 | 75 | 6.0 | 13.0 | 0.00 | 0.00 | 0.00 | 66 | 1012.1 |
| 20260502193031 | 62 | 164 | 1.0 | 7.0 | 0.00 | 0.00 | 0.00 | 65 | 1012.2 |
| 20260502191536 | 62 | 138 | 5.0 | 12.0 | 0.00 | 0.00 | 0.00 | 64 | 1012.3 |
| 20260502190026 | 62 | 67 | 1.0 | 7.0 | 0.00 | 0.00 | 0.00 | 66 | 1012.6 |
| 20260502184535 | 62 | 130 | 4.0 | 10.0 | 0.00 | 0.00 | 0.00 | 68 | 1012.6 |
| 20260502183029 | 61 | 116 | 4.0 | 11.0 | 0.00 | 0.00 | 0.00 | 66 | 1012.8 |
| 20260502181535 | 60 | 140 | 9.0 | 13.0 | 0.00 | 0.00 | 0.00 | 67 | 1013.0 |
| 20260502163045 | 58 | 138 | 6.0 | 15.0 | 0.00 | 0.00 | 0.00 | 72 | 1013.7 |
| 20260502161529 | 58 | 117 | 7.0 | 15.0 | 0.00 | 0.00 | 0.00 | 71 | 1013.9 |
| 20260502151535 | 58 | 113 | 9.0 | 16.0 | 0.00 | 0.00 | 0.00 | 72 | 1014.0 |
| 20260502123025 | 55 | 117 | 4.0 | 8.0 | 0.00 | 0.00 | 0.00 | 93 | 1012.7 |
| 20260502121527 | 55 | 128 | 3.0 | 6.0 | 0.00 | 0.00 | 0.00 | 94 | 1013.3 |
| 20260502114527 | 54 | 360 | 3.0 | 7.0 | 0.00 | 0.00 | 0.00 | 95 | 1013.2 |
| 20260502113028 | 54 | 116 | 3.0 | 8.0 | 0.00 | 0.00 | 0.00 | 95 | 1012.9 |
| 20260502111527 | 54 | 121 | 4.0 | 7.0 | 0.00 | 0.00 | 0.00 | 95 | 1012.4 |
| 20260502110029 | 54 | 92 | 2.0 | 8.0 | 0.00 | 0.00 | 0.00 | 95 | 1012.3 |
| 20260502104528 | 54 | 61 | 4.0 | 9.0 | 0.00 | 0.00 | 0.00 | 95 | 1011.8 |
| 20260502103026 | 55 | 40 | 5.0 | 7.0 | 0.00 | 0.00 | 0.00 | 94 | 1012.3 |
| 20260502101525 | 55 | 49 | 5.0 | 9.0 | 0.00 | 0.00 | 0.00 | 94 | 1011.9 |
| 20260502091528 | 55 | 360 | 4.0 | 6.0 | 0.00 | 0.00 | 0.00 | 93 | 1011.6 |
| 20260502071526 | 57 | 49 | 3.0 | 5.0 | 0.00 | 0.00 | 0.00 | 86 | 1012.2 |
| 20260502070042 | 57 | 45 | 4.0 | 5.0 | 0.00 | 0.00 | 0.00 | 86 | 1012.3 |
| 20260502064537 | 57 | 44 | 4.0 | 6.0 | 0.00 | 0.00 | 0.00 | 85 | 1012.4 |
| 20260502063029 | 57 | 55 | 3.0 | 5.0 | 0.00 | 0.00 | 0.00 | 85 | 1012.3 |
| 20260502061528 | 57 | 59 | 4.0 | 6.0 | 0.00 | 0.00 | 0.00 | 85 | 1012.3 |
| 20260502060029 | 57 | 46 | 1.0 | 4.0 | 0.00 | 0.00 | 0.00 | 84 | 1012.4 |
| 20260502054528 | 58 | 34 | 3.0 | 5.0 | 0.00 | 0.00 | 0.00 | 82 | 1012.6 |
| 20260502053029 | 59 | 22 | 3.0 | 4.0 | 0.00 | 0.00 | 0.00 | 78 | 1012.5 |
| 20260502051529 | 59 | 0 | 0.0 | 0.0 | 0.00 | 0.00 | 0.00 | 79 | 1012.6 |
| 20260502050034 | 59 | 0 | 0.0 | 0.0 | 0.00 | 0.00 | 0.00 | 79 | 1012.8 |
| 20260502044525 | 59 | 0 | 0.0 | 0.0 | 0.00 | 0.00 | 0.00 | 79 | 1013.1 |
| 20260502043027 | 59 | 0 | 0.0 | 0.0 | 0.00 | 0.00 | 0.00 | 78 | 1013.2 |
| 20260502041533 | 59 | 0 | 0.0 | 0.0 | 0.00 | 0.00 | 0.00 | 78 | 1013.3 |
| 20260502040028 | 59 | 0 | 0.0 | 0.0 | 0.00 | 0.00 | 0.00 | 78 | 1013.3 |
| 20260502034536 | 59 | 0 | 0.0 | 0.0 | 0.00 | 0.00 | 0.00 | 78 | 1013.4 |
| 20260502033025 | 60 | 0 | 0.0 | 0.0 | 0.00 | 0.00 | 0.00 | 76 | 1013.5 |
| 20260502031527 | 60 | 213 | 1.0 | 4.0 | 0.00 | 0.00 | 0.00 | 75 | 1013.6 |
| 20260502030026 | 60 | 206 | 2.0 | 4.0 | 0.00 | 0.00 | 0.00 | 74 | 1013.7 |
| 20260502024527 | 60 | 209 | 3.0 | 5.0 | 0.00 | 0.00 | 0.00 | 74 | 1013.5 |
| 20260502023028 | 60 | 193 | 4.0 | 6.0 | 0.00 | 0.00 | 0.00 | 75 | 1013.6 |
| 20260502021528 | 60 | 182 | 4.0 | 5.0 | 0.00 | 0.00 | 0.00 | 75 | 1013.4 |
| 20260502020028 | 60 | 200 | 3.0 | 6.0 | 0.00 | 0.00 | 0.00 | 74 | 1013.4 |
| 20260502014547 | 60 | 211 | 4.0 | 7.0 | 0.00 | 0.00 | 0.00 | 74 | 1013.2 |
| 20260502013030 | 60 | 206 | 4.0 | 6.0 | 0.00 | 0.00 | 0.00 | 74 | 1013.3 |
| 20260502011526 | 60 | 189 | 3.0 | 5.0 | 0.00 | 0.00 | 0.00 | 75 | 1013.3 |
| 20260502010026 | 60 | 200 | 3.0 | 4.0 | 0.00 | 0.00 | 0.00 | 74 | 1013.2 |
| 20260502004526 | 60 | 226 | 2.0 | 4.0 | 0.00 | 0.00 | 0.00 | 74 | 1013.1 |
| 20260502003028 | 61 | 227 | 3.0 | 5.0 | 0.00 | 0.00 | 0.00 | 74 | 1012.7 |
| 20260502001528 | 61 | 221 | 3.0 | 6.0 | 0.00 | 0.00 | 0.00 | 74 | 1012.9 |
| 20260502000044 | 61 | 197 | 3.0 | 5.0 | 0.00 | 0.00 | 0.00 | 75 | 1012.8 |
| 20260501234528 | 61 | 191 | 4.0 | 7.0 | 0.00 | 0.00 | 0.00 | 72 | 1012.6 |
| 20260501233028 | 61 | 217 | 4.0 | 9.0 | 0.00 | 0.00 | 0.00 | 72 | 1012.6 |
| 20260501231526 | 62 | 228 | 4.0 | 10.0 | 0.00 | 0.00 | 0.00 | 70 | 1012.2 |
| 20260501230027 | 62 | 213 | 4.0 | 8.0 | 0.00 | 0.00 | 0.00 | 69 | 1012.2 |
| 20260501224528 | 63 | 186 | 1.0 | 9.0 | 0.00 | 0.00 | 0.00 | 68 | 1012.1 |
| 20260501223026 | 62 | 199 | 2.0 | 5.0 | 0.00 | 0.00 | 0.00 | 68 | 1012.1 |